User: anonymous   Login
Location: Fort Wayne
(41.1310°N, 85.1290°W)
Time: 15:07:40
(UTC-04:00)
Language:

SL-08 RB Rocket - Orbit

View from above orbital plane
View from above orbital plane
View from above satellite
View from above satellite

Ground track
Ground track

The orbit data is extracted from the following two-line orbital elements,

1 26387U 00033D   15108.83543274  .00000895  00000-0  16476-3 0  9992
2 26387 098.0673 177.7223 0025860 328.2434 166.7085 14.67819922791916
Epoch (UTC): 18 April 2015 20:03:01
Eccentricity: 0.0025860
inclination: 98.0673°
perigee height: 650 km
apogee height: 686 km
right ascension of ascending node: 177.7223°
argument of perigee: 328.2434°
revolutions per day: 14.67819922
mean anomaly at epoch: 166.7085°
orbit number at epoch: 79191

The dashed part of the orbit path shows where the satellite is in the earth's shadow,  

DLR